Angel Fire, NM

10:49 PM MST on December 10, 2019 (GMT -0700)
Angel Fire

Weather History for KAXX - October, 2019

Change the Weather History Date:

Monday, October 21, 2019

  Actual Average (WUND) Record (WUND)
Temperature  
Mean Temperature 28 °F -  
Max Temperature 44 °F - - (-1)
Min Temperature 12 °F - - (-1)
Degree Days  
Heating Degree Days 37    
Moisture  
Dew Point 4 °F    
Average Humidity 35    
Maximum Humidity 72    
Minimum Humidity 20    
Precipitation  
Precipitation 0.00 in - - ()
Sea Level Pressure  
Sea Level Pressure 30.09 in    
Wind  
Wind Speed 13 mph (WNW)    
Max Wind Speed 25 mph    
Max Gust Speed 36 mph    
Visibility 10 miles    
Events      
Averages and records for this station are not official NWS values.
T = Trace of Precipitation, MM = Missing Value Source: NWS Daily Summary

Daily Weather History Graph

Daily Weather History Graph

Search for Another Location

Airport or City:

Astronomy

Oct. 21, 2019 Rise Set
Actual Time 7:13 AM MDT 6:17 PM MDT
Civil Twilight 6:47 AM MDT 6:43 PM MDT
Nautical Twilight 6:17 AM MDT 7:13 PM MDT
Astronomical Twilight 5:47 AM MDT 7:43 PM MDT
Moon No Moon Rise 2:27 PM MDT (10/21)
Length of Visible Light 11h 56m
Length of Day
11h 03m
Waning Gibbous, 47% of the Moon is Illuminated
Oct 21
Waning Gibbous
Oct 27
New
Nov 4
First Quarter
Nov 12
Full
Nov 19
Last Quarter

Hourly Weather History & Observations

Time (MDT) Temp. Windchill Dew Point Humidity Pressure Visibility Wind Dir Wind Speed Gust Speed Precip Events Conditions
12:15 AM 26.1 °F 17.6 °F 2.3 °F 36% 30.03 in 10.0 mi NNW 8.1 mph - N/A   Clear
12:35 AM 24.8 °F 19.1 °F 1.9 °F 37% 30.03 in 10.0 mi North 4.6 mph - N/A   Clear
12:55 AM 24.3 °F 16.3 °F 2.5 °F 39% 30.02 in 10.0 mi NW 6.9 mph - N/A   Clear
1:15 AM 23.9 °F 15.0 °F 2.5 °F 40% 30.01 in 10.0 mi NW 8.1 mph - N/A   Clear
1:35 AM 24.8 °F 14.6 °F 2.7 °F 39% 30.00 in 10.0 mi WNW 10.4 mph - N/A   Clear
1:55 AM 25.7 °F 14.0 °F 2.5 °F 37% 30.00 in 10.0 mi WNW 13.8 mph 20.7 mph N/A   Clear
2:15 AM 25.5 °F 14.3 °F 2.1 °F 37% 30.00 in 10.0 mi West 12.7 mph 19.6 mph N/A   Clear
2:35 AM 25.7 °F 14.6 °F 2.7 °F 37% 30.00 in 10.0 mi West 12.7 mph 23.0 mph N/A   Clear
2:55 AM 26.4 °F 13.6 °F 1.9 °F 35% 30.00 in 10.0 mi West 17.3 mph 24.2 mph N/A   Clear
3:15 AM 26.4 °F 12.8 °F 1.2 °F 34% 29.99 in 10.0 mi West 19.6 mph 24.2 mph N/A   Clear
3:35 AM 26.6 °F 12.4 °F 1.0 °F 33% 29.99 in 10.0 mi West 21.9 mph 31.1 mph N/A   Clear
3:55 AM 26.4 °F 11.2 °F 1.0 °F 34% 29.98 in 10.0 mi West 25.3 mph 32.2 mph N/A   Clear
4:15 AM 25.9 °F 11.1 °F 1.0 °F 34% 29.99 in 10.0 mi West 23.0 mph 28.8 mph N/A   Clear
4:35 AM 25.5 °F 12.9 °F 1.0 °F 35% 30.00 in 10.0 mi West 16.1 mph 25.3 mph N/A   Clear
4:55 AM 25.2 °F 12.0 °F 0.9 °F 35% 30.01 in 10.0 mi West 17.3 mph 20.7 mph N/A   Clear
5:15 AM 25.2 °F 13.3 °F 0.9 °F 35% 30.01 in 10.0 mi West 13.8 mph 23.0 mph N/A   Clear
5:35 AM 24.8 °F 11.5 °F 1.4 °F 36% 30.01 in 10.0 mi West 17.3 mph 25.3 mph N/A   Clear
5:55 AM 24.6 °F 12.7 °F 1.9 °F 38% 30.01 in 10.0 mi West 13.8 mph 27.6 mph N/A   Clear
6:35 AM 24.4 °F 10.6 °F 2.3 °F 39% 30.01 in 10.0 mi West 18.4 mph 24.2 mph N/A   Clear
6:55 AM 24.4 °F 12.4 °F 2.3 °F 39% 30.02 in 10.0 mi West 13.8 mph 24.2 mph N/A   Clear
7:15 AM 24.1 °F 12.5 °F 2.3 °F 39% 30.03 in 10.0 mi West 12.7 mph 20.7 mph N/A   Clear
7:35 AM 23.9 °F 13.5 °F 2.3 °F 39% 30.03 in 10.0 mi West 10.4 mph 19.6 mph N/A   Clear
7:55 AM 24.6 °F 12.7 °F 2.7 °F 39% 30.04 in 10.0 mi West 13.8 mph 18.4 mph N/A   Clear
8:15 AM 26.4 °F 15.0 °F 2.3 °F 36% 30.05 in 10.0 mi West 13.8 mph 19.6 mph N/A   Clear
8:35 AM 27.5 °F 14.6 °F 2.3 °F 34% 30.06 in 10.0 mi West 18.4 mph 23.0 mph N/A   Clear
8:55 AM 29.3 °F 17.0 °F 2.7 °F 32% 30.07 in 10.0 mi West 18.4 mph 24.2 mph N/A   Clear
9:15 AM 30.7 °F 18.8 °F 2.7 °F 30% 30.07 in 10.0 mi West 18.4 mph 21.9 mph N/A   Clear
9:35 AM 31.6 °F 19.7 °F 2.5 °F 29% 30.06 in 10.0 mi West 19.6 mph 27.6 mph N/A   Clear
9:55 AM 32.2 °F 21.1 °F 3.2 °F 29% 30.08 in 10.0 mi WNW 17.3 mph 27.6 mph N/A   Clear
10:15 AM 32.7 °F 19.9 °F 2.8 °F 28% 30.08 in 10.0 mi West 24.2 mph 28.8 mph N/A   Clear
10:35 AM 33.4 °F 21.4 °F 3.0 °F 28% 30.08 in 10.0 mi West 21.9 mph 27.6 mph N/A   Clear
10:55 AM 34.2 °F 21.8 °F 3.2 °F 27% 30.09 in 10.0 mi West 24.2 mph 28.8 mph N/A   Clear
11:15 AM 35.2 °F 24.1 °F 3.2 °F 26% 30.09 in 10.0 mi West 20.7 mph 28.8 mph N/A   Clear
11:35 AM 36.5 °F 26.3 °F 3.9 °F 26% 30.10 in 10.0 mi West 18.4 mph 27.6 mph N/A   Scattered Clouds
11:55 AM 37.6 °F 27.1 °F 4.8 °F 26% 30.10 in 10.0 mi WNW 20.7 mph 25.3 mph N/A   Scattered Clouds
12:15 PM 38.8 °F 32.1 °F 6.1 °F 26% 30.10 in 10.0 mi West 10.4 mph 21.9 mph N/A   Scattered Clouds
12:35 PM 38.8 °F 30.4 °F 6.3 °F 26% 30.09 in 10.0 mi West 15.0 mph 26.5 mph N/A   Scattered Clouds
12:55 PM 39.6 °F 30.6 °F 7.3 °F 26% 30.09 in 10.0 mi West 17.3 mph 29.9 mph N/A   Mostly Cloudy
1:15 PM 39.9 °F 32.5 °F 7.9 °F 27% 30.08 in 10.0 mi WNW 12.7 mph 26.5 mph N/A   Mostly Cloudy
1:35 PM 41.5 °F 32.4 °F 9.5 °F 27% 30.08 in 10.0 mi WNW 20.7 mph 33.4 mph N/A   Overcast
1:55 PM 43.2 °F 35.0 °F 9.7 °F 26% 30.08 in 10.0 mi WNW 18.4 mph 24.2 mph N/A   Mostly Cloudy
2:15 PM 44.2 °F 36.4 °F 7.9 °F 23% 30.07 in 10.0 mi West 18.4 mph 28.8 mph N/A   Mostly Cloudy
2:35 PM 44.1 °F 37.1 °F 6.1 °F 21% 30.07 in 10.0 mi WNW 15.0 mph 24.2 mph N/A   Scattered Clouds
2:55 PM 43.9 °F 36.2 °F 5.2 °F 20% 30.06 in 10.0 mi NW 17.3 mph 26.5 mph N/A   Clear
3:15 PM 44.2 °F 36.2 °F 5.2 °F 20% 30.07 in 10.0 mi West 19.6 mph 35.7 mph N/A   Clear
3:35 PM 44.1 °F 36.5 °F 5.7 °F 21% 30.08 in 10.0 mi West 17.3 mph 26.5 mph N/A   Clear
3:55 PM 43.7 °F 35.7 °F 5.7 °F 21% 30.08 in 10.0 mi WNW 18.4 mph 31.1 mph N/A   Clear
4:15 PM 43.7 °F 36.0 °F 5.7 °F 21% 30.08 in 10.0 mi West 17.3 mph 29.9 mph N/A   Clear
4:35 PM 43.7 °F 36.9 °F 5.7 °F 21% 30.09 in 10.0 mi West 13.8 mph 27.6 mph N/A   Clear
4:55 PM 43.7 °F 36.9 °F 5.9 °F 21% 30.10 in 10.0 mi West 13.8 mph - N/A   Clear
5:15 PM 42.8 °F 34.8 °F 6.3 °F 22% 30.11 in 10.0 mi NW 17.3 mph 21.9 mph N/A   Scattered Clouds
5:35 PM 41.9 °F 34.3 °F 6.4 °F 23% 30.12 in 10.0 mi NW 15.0 mph - N/A   Clear
5:55 PM 40.1 °F 34.1 °F 7.0 °F 25% 30.13 in 10.0 mi North 9.2 mph 17.3 mph N/A   Clear
6:15 PM 37.4 °F 29.8 °F 6.4 °F 28% 30.14 in 10.0 mi NNW 11.5 mph 17.3 mph N/A   Clear
6:35 PM 34.9 °F 28.3 °F 6.4 °F 30% 30.15 in 10.0 mi North 8.1 mph - N/A   Clear
6:55 PM 32.0 °F 27.5 °F 6.1 °F 34% 30.16 in 10.0 mi NNW 4.6 mph - N/A   Clear
7:15 PM 30.9 °F 23.5 °F 5.9 °F 35% 30.18 in 10.0 mi NE 8.1 mph - N/A   Clear
7:35 PM 30.6 °F 25.8 °F 5.7 °F 35% 30.20 in 10.0 mi ENE 4.6 mph - N/A   Clear
7:55 PM 28.8 °F 23.7 °F 7.2 °F 40% 30.21 in 10.0 mi NW 4.6 mph - N/A   Clear
8:15 PM 31.1 °F - 8.1 °F 38% 30.22 in 10.0 mi Calm Calm - N/A   Scattered Clouds
8:35 PM 28.9 °F 21.9 °F 8.2 °F 42% 30.22 in 10.0 mi West 6.9 mph - N/A   Mostly Cloudy
9:15 PM 25.5 °F - 7.2 °F 46% 30.25 in 10.0 mi Calm Calm - N/A   Clear
9:35 PM 22.6 °F - 6.3 °F 50% 30.26 in 10.0 mi Calm Calm - N/A   Clear
9:55 PM 20.1 °F 13.6 °F 5.5 °F 53% 30.27 in 10.0 mi South 4.6 mph - N/A   Clear
10:15 PM 19.4 °F - 6.4 °F 57% 30.26 in 10.0 mi Calm Calm - N/A   Clear
10:35 PM 16.9 °F - 5.5 °F 61% 30.27 in 10.0 mi Calm Calm - N/A   Clear
10:55 PM 13.5 °F - 5.2 °F 70% 30.28 in 10.0 mi Calm Calm - N/A   Clear
11:15 PM 12.7 °F - 4.1 °F 68% 30.28 in 10.0 mi Calm Calm - N/A   Clear
11:35 PM 13.3 °F 7.3 °F 4.8 °F 69% 30.28 in 10.0 mi SSE 3.5 mph - N/A   Clear
11:55 PM 12.2 °F 4.3 °F 4.6 °F 72% 30.28 in 10.0 mi South 4.6 mph - N/A   Clear